Location: Peach Mountain Observatory
(42.3967°N, 83.9367°W)
Time: 05:59:05
(UTC-04:00)

deb Explorer IX - Pass Details

Date: 28 January 2020
Orbit: 547 x 1100 km, 38.8° (Epoch: 06 April)

Event Time Altitude Azimuth Distance (km) Brightness Sun altitude
Rises 23:33:58 0° 268° (W) 3,764 - -61.0°
Reaches altitude 10° 23:36:37 10° 265° (W) 2,864 - -61.3°
Maximum altitude 23:43:39 66° 186° (S) 1,189 - -62.0°
Drops below altitude 10° 23:50:52 10° 106° (ESE) 2,935 - -62.7°
Sets 23:53:36 0° 104° (ESE) 3,862 - -63.0°
